Time,TemperatureF,DewpointF,PressureIn,WindDirection,WindDirectionDegrees,WindSpeedMPH,WindSpeedGustMPH,Humidity,HourlyPrecipIn,Conditions,Clouds,dailyrainin,SoftwareType,DateUTC
2013-06-29 00:12:00,70.9,69.7,29.41,SSW,202,2.2,-999.0,96,-99.99,,,0.00,Acu-Link.com,2013-06-29 04:12:00,
2013-06-29 00:27:00,70.9,69.7,29.41,South,180,5.3,-999.0,96,-99.99,,,0.00,Acu-Link.com,2013-06-29 04:27:00,
2013-06-29 00:42:00,70.9,69.7,29.40,South,180,3.7,-999.0,96,-99.99,,,0.00,Acu-Link.com,2013-06-29 04:42:00,
2013-06-29 00:57:00,70.9,69.7,29.40,SSW,202,4.2,-999.0,96,-99.99,,,0.00,Acu-Link.com,2013-06-29 04:57:00,
2013-06-29 01:12:00,70.9,70.0,29.39,ESE,112,3.2,-999.0,97,-99.99,,,0.00,Acu-Link.com,2013-06-29 05:12:00,
2013-06-29 01:27:00,70.9,70.3,29.39,SE,135,3.7,-999.0,98,-99.99,,,0.00,Acu-Link.com,2013-06-29 05:27:00,
2013-06-29 01:42:00,71.1,70.5,29.38,SSE,157,1.7,-999.0,98,-99.99,,,0.00,Acu-Link.com,2013-06-29 05:42:00,
2013-06-29 01:58:00,71.1,70.5,29.39,South,180,3.2,-999.0,98,-99.99,,,0.00,Acu-Link.com,2013-06-29 05:58:00,
2013-06-29 02:13:00,71.2,70.6,29.38,SSW,202,4.2,-999.0,98,-99.99,,,0.00,Acu-Link.com,2013-06-29 06:13:00,
2013-06-29 02:28:00,71.2,70.6,29.38,South,180,1.7,-999.0,98,-99.99,,,0.00,Acu-Link.com,2013-06-29 06:28:00,
2013-06-29 02:43:00,70.7,70.4,29.37,SW,225,2.2,-999.0,99,-99.99,,,0.00,Acu-Link.com,2013-06-29 06:43:00,
2013-06-29 02:58:00,70.5,70.2,29.38,South,180,2.2,-999.0,99,-99.99,,,0.00,Acu-Link.com,2013-06-29 06:58:00,
2013-06-29 03:13:00,70.5,70.2,29.37,South,180,2.7,-999.0,99,-99.99,,,0.00,Acu-Link.com,2013-06-29 07:13:00,
2013-06-29 03:28:00,70.3,70.0,29.39,SW,225,4.2,-999.0,99,-99.99,,,0.00,Acu-Link.com,2013-06-29 07:28:00,
2013-06-29 03:43:00,70.3,70.0,29.38,SSE,157,4.2,-999.0,99,-99.99,,,0.00,Acu-Link.com,2013-06-29 07:43:00,
2013-06-29 03:58:00,70.3,70.0,29.38,SSW,202,3.2,-999.0,99,-99.99,,,0.00,Acu-Link.com,2013-06-29 07:58:00,
2013-06-29 04:15:00,70.2,69.9,29.38,SSW,202,2.2,-999.0,99,-99.99,,,0.00,Acu-Link.com,2013-06-29 08:15:00,
2013-06-29 04:30:00,70.2,69.9,29.38,ESE,112,0.0,-999.0,99,-99.99,,,0.00,Acu-Link.com,2013-06-29 08:30:00,
2013-06-29 04:45:00,70.2,69.9,29.38,NNW,337,1.7,-999.0,99,-99.99,,,0.00,Acu-Link.com,2013-06-29 08:45:00,
2013-06-29 05:00:00,70.2,69.9,29.39,South,180,0.0,-999.0,99,-99.99,,,0.00,Acu-Link.com,2013-06-29 09:00:00,
2013-06-29 05:16:00,70.2,69.9,29.39,ESE,112,1.7,-999.0,99,-99.99,,,0.00,Acu-Link.com,2013-06-29 09:16:00,
2013-06-29 05:31:00,70.2,69.9,29.39,SW,225,3.7,-999.0,99,-99.99,,,0.00,Acu-Link.com,2013-06-29 09:31:00,
2013-06-29 05:46:00,70.2,69.9,29.40,WNW,292,1.7,-999.0,99,-99.99,,,0.00,Acu-Link.com,2013-06-29 09:46:00,
2013-06-29 06:01:00,70.2,69.9,29.41,South,180,2.2,-999.0,99,-99.99,,,0.00,Acu-Link.com,2013-06-29 10:01:00,
2013-06-29 06:16:00,70.3,70.0,29.42,SW,225,1.7,-999.0,99,-99.99,,,0.00,Acu-Link.com,2013-06-29 10:16:00,
2013-06-29 06:31:00,70.5,70.2,29.41,SSW,202,2.7,-999.0,99,-99.99,,,0.00,Acu-Link.com,2013-06-29 10:31:00,
2013-06-29 06:46:00,71.2,70.9,29.42,South,180,4.2,-999.0,99,-99.99,,,0.00,Acu-Link.com,2013-06-29 10:46:00,
2013-06-29 07:01:00,71.6,71.0,29.42,SW,225,3.7,-999.0,98,-99.99,,,0.00,Acu-Link.com,2013-06-29 11:01:00,
2013-06-29 07:16:00,72.7,71.8,29.41,East,90,2.7,-999.0,97,-99.99,,,0.00,Acu-Link.com,2013-06-29 11:16:00,
2013-06-29 07:32:00,73.2,71.7,29.42,South,180,4.2,-999.0,95,-99.99,,,0.00,Acu-Link.com,2013-06-29 11:32:00,
2013-06-29 07:47:00,73.4,71.6,29.41,South,180,2.7,-999.0,94,-99.99,,,0.00,Acu-Link.com,2013-06-29 11:47:00,
2013-06-29 08:02:00,73.6,71.4,29.43,SW,225,3.7,-999.0,93,-99.99,,,0.00,Acu-Link.com,2013-06-29 12:02:00,
2013-06-29 08:17:00,74.1,71.9,29.43,SSW,202,4.2,-999.0,93,-99.99,,,0.00,Acu-Link.com,2013-06-29 12:17:00,
2013-06-29 08:32:00,74.5,71.7,29.43,SSE,157,2.7,-999.0,91,-99.99,,,0.00,Acu-Link.com,2013-06-29 12:32:00,
2013-06-29 08:47:00,75.0,72.2,29.45,SSW,202,2.7,-999.0,91,-99.99,,,0.00,Acu-Link.com,2013-06-29 12:47:00,
2013-06-29 09:03:00,75.4,72.6,29.43,South,180,4.2,-999.0,91,-99.99,,,0.00,Acu-Link.com,2013-06-29 13:03:00,
2013-06-29 09:18:00,75.9,72.4,29.44,SW,225,4.7,-999.0,89,-99.99,,,0.00,Acu-Link.com,2013-06-29 13:18:00,
2013-06-29 09:33:00,75.6,72.1,29.44,WSW,247,4.7,-999.0,89,-99.99,,,0.00,Acu-Link.com,2013-06-29 13:33:00,
2013-06-29 09:48:00,75.6,72.1,29.45,ESE,112,5.8,-999.0,89,-99.99,,,0.00,Acu-Link.com,2013-06-29 13:48:00,
2013-06-29 10:03:00,75.4,72.3,29.46,SSW,202,4.7,-999.0,90,-99.99,,,0.00,Acu-Link.com,2013-06-29 14:03:00,
2013-06-29 10:18:00,75.2,72.1,29.46,South,180,5.3,-999.0,90,-99.99,,,0.00,Acu-Link.com,2013-06-29 14:18:00,
2013-06-29 10:34:00,75.0,71.9,29.45,East,90,3.7,-999.0,90,-99.99,,,0.00,Acu-Link.com,2013-06-29 14:34:00,
2013-06-29 10:49:00,75.0,72.2,29.43,SW,225,2.7,-999.0,91,-99.99,,,0.00,Acu-Link.com,2013-06-29 14:49:00,
2013-06-29 11:04:00,75.7,72.2,29.45,West,270,2.2,-999.0,89,-99.99,,,0.00,Acu-Link.com,2013-06-29 15:04:00,
2013-06-29 11:19:00,78.1,73.6,29.45,SSW,202,3.7,-999.0,86,-99.99,,,0.00,Acu-Link.com,2013-06-29 15:19:00,
2013-06-29 11:34:00,77.4,72.9,29.46,South,180,4.2,-999.0,86,-99.99,,,0.00,Acu-Link.com,2013-06-29 15:34:00,
2013-06-29 11:49:00,78.1,72.5,29.47,WSW,247,8.3,-999.0,83,-99.99,,,0.00,Acu-Link.com,2013-06-29 15:49:00,
2013-06-29 12:04:00,80.2,73.5,29.46,South,180,4.2,-999.0,80,-99.99,,,0.00,Acu-Link.com,2013-06-29 16:04:00,
2013-06-29 12:19:00,81.5,73.2,29.47,SSW,202,4.2,-999.0,76,-99.99,,,0.00,Acu-Link.com,2013-06-29 16:19:00,
2013-06-29 12:34:00,82.6,73.9,29.47,ESE,112,6.3,-999.0,75,-99.99,,,0.00,Acu-Link.com,2013-06-29 16:34:00,
2013-06-29 12:50:00,81.9,72.4,29.47,South,180,4.2,-999.0,73,-99.99,,,0.00,Acu-Link.com,2013-06-29 16:50:00,
2013-06-29 13:05:00,83.5,73.9,29.47,South,180,5.8,-999.0,73,-99.99,,,0.00,Acu-Link.com,2013-06-29 17:05:00,
2013-06-29 13:20:00,80.8,72.1,29.48,SW,225,6.3,-999.0,75,-99.99,,,0.00,Acu-Link.com,2013-06-29 17:20:00,
2013-06-29 13:35:00,82.2,72.3,29.47,SSW,202,7.8,-999.0,72,-99.99,,,0.00,Acu-Link.com,2013-06-29 17:35:00,
2013-06-29 13:50:00,81.9,72.8,29.47,South,180,6.3,-999.0,74,-99.99,,,0.00,Acu-Link.com,2013-06-29 17:50:00,
2013-06-29 14:05:00,82.9,73.3,29.47,SSW,202,6.8,-999.0,73,-99.99,,,0.00,Acu-Link.com,2013-06-29 18:05:00,
2013-06-29 14:20:00,82.6,73.5,29.46,SSE,157,2.2,-999.0,74,-99.99,,,0.00,Acu-Link.com,2013-06-29 18:20:00,
2013-06-29 14:36:00,82.0,72.1,29.46,South,180,10.4,-999.0,72,-99.99,,,0.00,Acu-Link.com,2013-06-29 18:36:00,
2013-06-29 14:51:00,83.1,73.1,29.46,East,90,8.9,-999.0,72,-99.99,,,0.00,Acu-Link.com,2013-06-29 18:51:00,
2013-06-29 15:06:00,81.9,72.4,29.48,South,180,4.2,-999.0,73,-99.99,,,0.00,Acu-Link.com,2013-06-29 19:06:00,
2013-06-29 15:21:00,82.8,72.0,29.48,SE,135,9.9,-999.0,70,-99.99,,,0.00,Acu-Link.com,2013-06-29 19:21:00,
2013-06-29 15:36:00,81.9,72.4,29.48,SSW,202,6.3,-999.0,73,-99.99,,,0.00,Acu-Link.com,2013-06-29 19:36:00,
2013-06-29 15:51:00,80.2,71.1,29.48,SSE,157,6.3,-999.0,74,-99.99,,,0.00,Acu-Link.com,2013-06-29 19:51:00,
2013-06-29 16:07:00,81.0,70.7,29.48,SW,225,7.3,-999.0,71,-99.99,,,0.00,Acu-Link.com,2013-06-29 20:07:00,
2013-06-29 16:22:00,82.0,71.2,29.48,NE,45,4.7,-999.0,70,-99.99,,,0.00,Acu-Link.com,2013-06-29 20:22:00,
2013-06-29 16:37:00,81.9,70.7,29.48,WSW,247,6.8,-999.0,69,-99.99,,,0.00,Acu-Link.com,2013-06-29 20:37:00,
2013-06-29 16:52:00,81.5,70.3,29.50,SE,135,9.4,-999.0,69,-99.99,,,0.00,Acu-Link.com,2013-06-29 20:52:00,
2013-06-29 17:08:00,81.0,71.1,29.50,SSE,157,5.8,-999.0,72,-99.99,,,0.00,Acu-Link.com,2013-06-29 21:08:00,
2013-06-29 17:23:00,81.7,71.4,29.50,WNW,292,4.7,-999.0,71,-99.99,,,0.00,Acu-Link.com,2013-06-29 21:23:00,
2013-06-29 17:38:00,81.1,70.8,29.49,South,180,6.3,-999.0,71,-99.99,,,0.00,Acu-Link.com,2013-06-29 21:38:00,
2013-06-29 17:53:00,81.1,70.4,29.49,SW,225,4.7,-999.0,70,-99.99,,,0.00,Acu-Link.com,2013-06-29 21:53:00,
2013-06-29 18:08:00,81.1,69.9,29.51,SW,225,4.7,-999.0,69,-99.99,,,0.00,Acu-Link.com,2013-06-29 22:08:00,
2013-06-29 18:24:00,81.1,70.4,29.49,SSW,202,5.3,-999.0,70,-99.99,,,0.00,Acu-Link.com,2013-06-29 22:24:00,
2013-06-29 18:39:00,79.3,69.5,29.51,SE,135,6.8,-999.0,72,-99.99,,,0.00,Acu-Link.com,2013-06-29 22:39:00,
2013-06-29 18:54:00,79.2,70.2,29.51,SSW,202,5.3,-999.0,74,-99.99,,,0.00,Acu-Link.com,2013-06-29 22:54:00,
2013-06-29 19:09:00,78.1,69.9,29.51,WSW,247,2.7,-999.0,76,-99.99,,,0.00,Acu-Link.com,2013-06-29 23:09:00,
2013-06-29 19:24:00,76.8,69.8,29.52,SSE,157,4.7,-999.0,79,-99.99,,,0.00,Acu-Link.com,2013-06-29 23:24:00,
2013-06-29 19:39:00,75.9,69.3,29.53,SSE,157,3.7,-999.0,80,-99.99,,,0.00,Acu-Link.com,2013-06-29 23:39:00,
2013-06-29 19:54:00,75.4,69.5,29.53,SSW,202,3.2,-999.0,82,-99.99,,,0.00,Acu-Link.com,2013-06-29 23:54:00,
2013-06-29 20:09:00,74.7,69.5,29.53,SW,225,3.7,-999.0,84,-99.99,,,0.00,Acu-Link.com,2013-06-30 00:09:00,
2013-06-29 20:24:00,73.8,69.7,29.53,South,180,4.2,-999.0,87,-99.99,,,0.00,Acu-Link.com,2013-06-30 00:24:00,
2013-06-29 20:40:00,73.4,69.6,29.54,South,180,4.2,-999.0,88,-99.99,,,0.00,Acu-Link.com,2013-06-30 00:40:00,
2013-06-29 20:55:00,72.7,69.3,29.55,SSW,202,2.2,-999.0,89,-99.99,,,0.00,Acu-Link.com,2013-06-30 00:55:00,
2013-06-29 21:10:00,72.5,69.4,29.55,South,180,2.7,-999.0,90,-99.99,,,0.00,Acu-Link.com,2013-06-30 01:10:00,
2013-06-29 21:25:00,72.0,69.2,29.56,SSE,157,3.7,-999.0,91,-99.99,,,0.00,Acu-Link.com,2013-06-30 01:25:00,
2013-06-29 21:40:00,71.6,69.1,29.56,South,180,3.7,-999.0,92,-99.99,,,0.00,Acu-Link.com,2013-06-30 01:40:00,
2013-06-29 21:55:00,71.2,68.8,29.57,South,180,2.2,-999.0,92,-99.99,,,0.00,Acu-Link.com,2013-06-30 01:55:00,
2013-06-29 22:10:00,71.1,68.7,29.58,South,180,3.2,-999.0,92,-99.99,,,0.00,Acu-Link.com,2013-06-30 02:10:00,
2013-06-29 22:25:00,70.7,68.6,29.57,South,180,3.2,-999.0,93,-99.99,,,0.00,Acu-Link.com,2013-06-30 02:25:00,
2013-06-29 22:40:00,70.7,68.6,29.57,WSW,247,3.2,-999.0,93,-99.99,,,0.00,Acu-Link.com,2013-06-30 02:40:00,
2013-06-29 22:55:00,70.7,68.6,29.58,South,180,2.7,-999.0,93,-99.99,,,0.00,Acu-Link.com,2013-06-30 02:55:00,
2013-06-29 23:11:00,70.9,68.8,29.58,South,180,2.2,-999.0,93,-99.99,,,0.00,Acu-Link.com,2013-06-30 03:11:00,
2013-06-29 23:26:00,70.9,68.8,29.59,SSE,157,3.7,-999.0,93,-99.99,,,0.00,Acu-Link.com,2013-06-30 03:26:00,
2013-06-29 23:41:00,71.6,69.5,29.60,South,180,3.2,-999.0,93,-99.99,,,0.00,Acu-Link.com,2013-06-30 03:41:00,
2013-06-29 23:56:00,71.6,69.5,29.60,South,180,3.7,-999.0,93,-99.99,,,0.00,Acu-Link.com,2013-06-30 03:56:00,